Regional Weather Roundup
Issued by NWS

Home | Current Version | Previous Version | Text Only | Print | Product List | Glossary On
Versions: 1 2 3 4 5 6 7 8 9 10 11 12 13 14 15 16 17 18 19 20 21 22 23 24 25 26 27 28 29 30 31 32 33 34 35 36 37 38 39 40 41 42 43 44 45 46 47 48 49 50
000
ASUS46 KSEW 260810
RWRWA

WASHINGTON REGIONAL WEATHER ROUNDUP
NATIONAL WEATHER SERVICE SEATTLE WA
100 AM PDT TUE MAY 26 2015

NOTE:"FAIR" INDICATES FEW OR NO CLOUDS BELOW 12,000 FEET WITH NO
SIGNIFICANT WEATHER AND/OR OBSTRUCTIONS TO VISIBILITY.

WAZ505-507>509-260900-
SEATTLE, TACOMA, EVERETT, AND VICINITY

CITY           SKY/WX    TMP DP  RH WIND       PRES   REMARKS
EVERETT        CLOUDY    56  50  80 SW5       30.03S
BOEING FIELD   CLOUDY    58  50  75 SW5       30.02S
RENTON         CLOUDY    57  50  77 S3        30.02S
SEATAC AIRPORT CLOUDY    54  49  83 SW7       30.03S
JBLM-MCCHORD   CLOUDY    54  51  90 S2        30.03S
PUYALLUP       CLOUDY    54  54 100 CALM      30.03S
BREMERTON      CLOUDY    52  50  93 S5        30.05F
JBLM-FT LEWIS  CLOUDY    53  51  93 S5        30.02F
TACOMA NARROWS CLOUDY    53  49  86 SW3       30.03F
$$

WAZ001-503-506-510-514-515-260900-
NORTH INTERIOR

CITY           SKY/WX    TMP DP  RH WIND       PRES   REMARKS
BELLINGHAM     CLOUDY    55  53  93 CALM      30.01S
FRIDAY HARBOR  CLOUDY    51  49  92 E3        30.03R
EASTSOUND      MOCLDY    55  50  82 CALM      30.00R
PORT ANGELES   CLOUDY    52  50  93 CALM      30.02S
PORT TOWNSEND  CLOUDY    54  52  94 CALM      30.02S
NAS WHIDBEY    MOCLDY    54  51  90 CALM      30.06S
ARLINGTON      CLOUDY    54  48  82 S3        30.03S
BURLINGTON     CLOUDY    54  52  94 CALM      30.02S
$$

WAZ020-022-039-040-504-511-512-260900-
SOUTHWEST INTERIOR

CITY           SKY/WX    TMP DP  RH WIND       PRES   REMARKS
SHELTON        CLOUDY    52  49  89 W7        30.01S
OLYMPIA        CLOUDY    50  47  89 S5        30.03F
CHEHALIS       CLOUDY    54  50  87 CALM      30.04S
KELSO          CLOUDY    54  46  76 NW3       30.08S
VANCOUVER      MOCLDY    54  47  77 NW3       30.03F
SCAPPOOSE, OR  PTCLDY    50  46  86 CALM      30.02F
PORTLAND, OR   MOCLDY    54  49  83 NW3       30.04S
$$

WAZ021-516-517-260900-
WASHINGTON COAST

CITY           SKY/WX    TMP DP  RH WIND       PRES   REMARKS
FORKS          CLOUDY    51  50  96 CALM      30.03S
HOQUIAM        CLOUDY    53  51  93 SW8       30.04S FOG
ASTORIA, OR    CLOUDY    52  50  93 SW3       30.05S
$$

WAZ019-023-024-040-518-519-260900-
CASCADE MOUNTAINS AND COLUMBIA GORGE

CITY           SKY/WX    TMP DP  RH WIND       PRES   REMARKS
TROUTDALE, OR  CLOUDY    56  48  74 CALM      30.02F
THE DALLES, OR PTCLDY    60  48  64 NW16      29.93S
$$

WAZ026-027-041>044-520-521-260900-
EAST SLOPES

CITY           SKY/WX    TMP DP  RH WIND       PRES   REMARKS
OMAK           CLOUDY    56  48  74 W3        29.91S
WENATCHEE      CLOUDY    61  44  53 NW9       29.92R
ELLENSBURG     CLEAR     55  44  66 NW17      29.93R
YAKIMA         CLEAR     61  42  49 NW8       29.91S
$$

WAZ028-034-035-260900-
COLUMBIA BASIN

CITY           SKY/WX    TMP DP  RH WIND       PRES   REMARKS
EPHRATA        CLOUDY    61  50  67 N5        29.90R
MOSES LAKE     CLOUDY    57  49  74 N5        29.91R
PASCO          PTCLDY    65  47  52 CALM      29.89R
HERMISTON, OR  PTCLDY    59  47  64 SW9       29.89R
$$

WAZ036>038-260900-
NORTHEAST WASHINGTON

CITY           SKY/WX    TMP DP  RH WIND       PRES   REMARKS
SPOKANE GEIGER CLOUDY    53  47  79 S3        29.91F
SPOKANE FELTS  CLOUDY    55  51  86 CALM      29.91F
FAIRCHILD AFB  CLOUDY    50  49  95 S3        29.91S
COEURDALENE,ID MOCLDY    54  48  82 SE3       29.91S
DEER PARK      CLOUDY    51  49  92 N3        29.92S
$$

WAZ029>033-260900-
SOUTHEAST WASHINGTON

CITY           SKY/WX    TMP DP  RH WIND       PRES   REMARKS
PULLMAN        MOCLDY    53  47  79 NW3       29.93S
LEWISTON, ID   TSTM      61  52  72 S6        29.89R
WALLA WALLA    CLOUDY    61  52  72 E7        29.90S
PENDLETON, OR  PTCLDY    55  46  71 NW6       29.91S
$$


USA.gov is the U.S. government's official web portal to all federal, state and local government web resources and services.